Regional Weather Roundup
Issued by NWS Charleston, SC

Current Version | Previous Version | Graphics & Text | Print | Product List | Glossary On
Versions: 1 2 3 4 5 6 7 8 9 10 11 12 13 14 15 16 17 18 19 20 21 22 23 24 25 26 27 28 29 30 31 32 33 34 35 36 37 38 39 40 41 42 43 44 45 46 47 48 49 50
000 ASUS42 KCHS 241527 RWRCHS REGIONAL WEATHER ROUNDUP NATIONAL WEATHER SERVICE CHARLESTON SC 1100 AM EDT FRI MAR 24 2017 NOTE: "FAIR" INDICATES FEW OR NO CLOUDS BELOW 12,000 FEET WITH NO SIGNIFICANT WEATHER AND/OR OBSTRUCTIONS TO VISIBILITY. NOT ALL STATIONS ARE QUALITY CONTROLLED. USE DATA WITH CAUTION... ESPECIALLY DEWPOINT OBSERVATIONS. SCZ027-030-031-034>040-042>050-241600- ...SOUTHEAST SOUTH CAROLINA... CITY SKY/WX TMP DP RH WIND PRES REMARKS N CHARLESTON MOSUNNY 69 49 48 SE9 30.49S WATERFRONT PRK N/A 64 55 72 CALM 30.48S JOHNS ISLAND FAIR 70 54 56 E10 30.49S PINOPOLIS N/A 55 52 88 VRB2 30.40S MONCKS CORNER FAIR 66 45 45 SE7 30.49F SUMMERVILLE FAIR 66 48 52 SE5 30.50S BEAUFORT MCAS MOSUNNY 68 54 60 VRB3 30.48S BEAUFORT ARPT FAIR 66 54 63 NE7 30.48S HILTON HEAD IS SUNNY 64 54 68 NE7 30.48S WALTERBORO SUNNY 68 48 49 SE3 30.50R ALLENDALE FAIR 66 48 52 E7 30.47F ...SOUTHERN MIDLANDS AND PEE DEE... CITY SKY/WX TMP DP RH WIND PRES REMARKS GEORGETOWN FAIR 66 52 59 E5 30.52R KINGSTREE FAIR 64 46 52 SE9 30.50S ORANGEBURG SUNNY 62 49 62 VRB5 30.50S BARNWELL FAIR 66 50 55 S8 30.48F AIKEN FAIR 63 46 55 SE7 30.51S MANNING FAIR 64 39 39 S6 30.50S COLUMBIA MOSUNNY 59 45 59 SE5 30.50S SUMTER MOSUNNY 61 46 57 SE5 30.48S FLORENCE SUNNY 61 47 59 S6 30.51S MYRTLE BEACH SUNNY 59 48 67 SE9 30.52S N MYRTLE BEACH SUNNY 61 49 64 SE8 30.51S $$ GAZ063-065-086>088-099>101-113>116-118-119-134>141-150-241600- ...SOUTHEAST GEORGIA... CITY SKY/WX TMP DP RH WIND PRES REMARKS SAVANNAH ARPT SUNNY 69 51 52 E12 30.47S HUNTER AAF SUNNY 71 55 58 E9 30.44S FORT STEWART SUNNY 70 50 50 E10 30.43S STATESBORO SUNNY 69 51 52 SE8 30.47S SYLVANIA SUNNY N/A N/A N/A SE9 30.48S CLAXTON FAIR 69 53 55 NE7 30.46S ...CSRA...CENTRAL AND FAR SOUTHEAST GEORGIA... CITY SKY/WX TMP DP RH WIND PRES REMARKS THOMSON PTSUNNY 65 47 53 SW8 30.52F AUGUSTA-BUSH SUNNY 64 48 56 SE3 30.48S AUGUSTA-DANIEL SUNNY 62 45 53 SE8 30.48S SWAINSBORO FAIR 68 50 52 SE10G17 30.47S VIDALIA SUNNY 70 52 52 SE9 30.45S EASTMAN FAIR 71 40 32 S8 30.47S HAZLEHURST FAIR 70 55 60 SE6 30.44R ALMA SUNNY 67 53 61 E9 30.43S WAYCROSS SUNNY 73 57 58 E10 30.43S JESUP FAIR 72 52 49 SE7G17 30.44S BAXLEY FAIR 70 55 60 SE9 30.44S BRUNSWICK SUNNY 73 55 53 E13G18 30.44S SAINT SIMONS SUNNY 69 55 60 E13 30.43S $$ SCZ027-028-034-036>038-045-046-048>050-GAZ119-141-241600- ...LAKE AND SUPPLEMENTAL COASTAL OBSERVATIONS... STATION/POSITION TIME TEMP WIND PRES WAVE SWELL AIR SEA DIR/SP/G HT/PER HT/PER/DIR (UTC) (F) (DEG/KT/KT) (MB) (FT/S) (FT/S/D) WINYAH BAY 1445 57 60/ 10 1033.0S LAKE MURRAY 1450 56 CALM / 2 1032.5R ACE BASIN NERRS 1445 68 50/ 2 1032.0S FORT PULASKI 1500 62 60 70/ 8/ 10 1032.1 SAPELO ISLAND 1500 72 90/ 7 1031.0 $$ ANZ835-935-AMZ111-154-330-350-352-354-370-450-454-472-241600- ...C-MAN AND BUOY OBSERVATIONS... STATION/POSITION TIME TEMP WIND PRES WAVE SWELL AIR SEA DIR/SP/G HT/PER HT/PER/DIR (UTC) (F) (DEG/KT/KT) (MB) (FT/S) (FT/S/D) BUOY 41004 1450 68 71 120/ 14/ 17 1031.5F 5/ 6 3/120/ 8 BUOY 41008 1450 63 62 40/ 6/ 8 1030.8R 5/ 7 5/100/ 7 FOLLY BEACH CMAN 1500 60 50/ 11/ 12 1032.9R CAPERS NEARSHORE 1408 59 60/ 12/ 16 1032.2R FRIPP NEARSHORE 1508 60 60 40/ 8/ 10 1031.9R STATION/POSITION TIME TEMP WIND PRES WAVE SWELL AIR SEA DIR/SP/G HT/PER HT/PER/DIR (UTC) (F) (DEG/KT/KT) (MB) (FT/S) (FT/S/D) 5E ST. MARYS GA 1500 63 N/A 5/ 8 2/ 90/11 FRYING PAN BUOY 1510 66 71 120/ 10/ 14 1033.2 BUOY 41025 1450 61 75 180/ 14/ 16 1034.3S 5/ 8 5/ 60/ 8 CAPE LOOKOUT NC 1500 59 130/ 2/ 3 1033.5F BUOY 41002 1450 63 73 70/ 14/ 19 1033.3R 6/10 5/ 20/10 BUOY 41010 NOT AVBL ST AUGUSTINE FL 1500 67 65 100/ 15/ 16 1030.4S $$

USA.gov is the U.S. government's official web portal to all federal, state and local government web resources and services.